Regional Weather Roundup
Issued by NWS Grand Forks, ND

Home | Current Version | Previous Version | Text Only | Print | Product List | Glossary Off
Versions: 1 2 3 4 5 6 7 8 9 10 11 12 13 14 15 16 17 18 19 20 21 22 23 24 25 26 27 28 29 30 31 32 33 34 35 36 37 38 39 40 41 42 43 44 45 46 47 48 49 50

000
ASUS43 KFGF 270031
RWRFGF
PRAIRIE TO PINES  WEATHER ROUNDUP
NATIONAL WEATHER SERVICE EASTERN NORTH DAKOTA/GRAND FORKS ND
600 PM CST MON JAN 26 2015

 **SATELLITE DATA USED TO AUGMENT SKY COVER AT AUTOMATED STATIONS**
 *****  WEATHER ACROSS EASTERN NORTH DAKOTA  *****

CITY           SKY/WX    TMP DP  RH WIND       PRES   REMARKS
GRAND FORKS    MOCLDY    28  25  88 N7        29.97R WCI  21
6HR MIN TEMP:  28; 6HR MAX TEMP:  36;

GRAND FRKS AFB PTCLDY    28  25  88 NE3       29.96R
DEVILS LAKE    CLOUDY    32  28  86 CALM      29.94S
6HR MIN TEMP:  34; 6HR MAX TEMP:  39;

FARGO          MOCLDY    31  26  82 N12       29.96R WCI  22
WAHPETON ARPT  CLEAR     32  30  93 N10       29.96S WCI  24
$$

 ***** WEATHER ACROSS CENTRAL AND WESTERN NORTH DAKOTA  *****

CITY           SKY/WX    TMP DP  RH WIND       PRES   REMARKS
BISMARCK       MOCLDY    36  31  82 SE5       29.97S
6HR MIN TEMP:  36; 6HR MAX TEMP:  50;

MINOT          PTCLDY    36  30  79 E5        29.94R
6HR MIN TEMP:  36; 6HR MAX TEMP:  45;

JAMESTOWN      CLEAR     33  30  88 NW7       29.95S
6HR MIN TEMP:  33; 6HR MAX TEMP:  41;

MINOT AFB      CLEAR     35  35  99 S5        29.93S
GARRISON         N/A     38  33  82 CALM      29.94S
WILLISTON      MOCLDY    41  32  70 SW3       29.92S
6HR MIN TEMP:  41; 6HR MAX TEMP:  50;

DICKINSON      MOCLDY    40  30  67 S6        29.92S
6HR MIN TEMP:  40; 6HR MAX TEMP:  52;

HETTINGER      PTCLDY    43  33  68 SE3       29.96F
6HR MIN TEMP:  43; 6HR MAX TEMP:  54;

$$

 *****  OTHER AIRPORT OBSERVATIONS IN OUR AREA  *****

CITY           SKY/WX    TMP DP  RH WIND       PRES   REMARKS
WALHALLA         N/A     28  28 100 E3        29.97R
GRAFTON AIRPOR NOT AVBL
VALLEY CITY AR FAIR      32  32 100 NW7       29.96R
CANDO          CLOUDY    32  30  93 CALM      29.94S
CAVALIER APRT  MOCLDY    27  25  93 N3        29.98R
GWINNER        CLEAR     36  34  93 NW8       29.98R
SHEYENNE NWR     N/A     38  31  77 N5        29.95S
ROLLA          CLOUDY    36  32  87 NW3       29.93S
 ***** THE ABOVE OBSERVATIONS ARE NON NWS ARE NOT QUALITY
       CONTROLLED AND MAY MIS-REPORT RAIN FOR SNOW...
$$

  *****  WEATHER ACROSS NORTHERN MINNESOTA  *****

CITY           SKY/WX    TMP DP  RH WIND       PRES   REMARKS
FLAG ISLAND    CLOUDY    25  21  86 N10       29.91R WCI  15
WARROAD        CLOUDY    27  21  80 N7        29.94R WCI  19
ROSEAU         CLOUDY    27  21  80 NW7       29.94R WCI  19
HALLOCK        CLOUDY    27  25  93 N9        29.96R WCI  17
THF RVR FALLS  CLOUDY    28  25  86 N7        29.94S WCI  21
6HR MIN TEMP:  28; 6HR MAX TEMP:  34;

BAUDETTE       CLOUDY    27  21  78 N12       29.89R WCI  17
6HR MIN TEMP:  27; 6HR MAX TEMP:  32; 6HR PCP: TRACE;

WASKISH        CLOUDY    28  25  86 CALM      29.91R
CROOKSTON      CLOUDY    28  25  86 N12       29.97R WCI  18
STEPHEN NDAWN    N/A     27  25  93 N10         N/A  WCI  17
GREENBUSH NDAW   N/A     25  23  93 N12         N/A  WCI  14
$$
  *****  WEATHER ACROSS CENTRAL AND WEST MINNESOTA  *****

CITY           SKY/WX    TMP DP  RH WIND       PRES   REMARKS
FOSSTON        CLOUDY    27  25  93 N10       29.93F WCI  17
BEMIDJI        CLOUDY    30  26  83 NW10G17   29.90R WCI  21
PARK RAPIDS    CLOUDY    32  26  78 N16G23    29.89R WCI  21
6HR MIN TEMP:  32; 6HR MAX TEMP:  39;

ELBOW LAKE     CLOUDY    32  29  89 N15G22    29.92S WCI  22
WADENA         CLOUDY    30  27  86 NW12      29.91R WCI  21
DETROIT LAKES  CLOUDY    30  28  93 N7G21     29.94R WCI  23
MOORHEAD       PTCLDY    30  30 100 N12       29.98R WCI  21
FERGUS FALLS   CLOUDY    30  27  86 N10G24    29.97S WCI  21
MORRIS MN      PTCLDY    34  30  86 N13       29.93R WCI  25
STAPLES        CLOUDY    34  28  80 NW10      29.90R
$$
  *****  WEATHER ELSEWHERE ACROSS MINNESOTA  *****

CITY           SKY/WX    TMP DP  RH WIND       PRES   REMARKS
DULUTH         CLOUDY    31  26  82 N9        29.80R WCI  23
6HR MIN TEMP:  27; 6HR MAX TEMP:  31; 6HR PCP:  0.01;

INTRNTL FALLS  CLOUDY    27  22  81 NW8       29.87R WCI  19
6HR MIN TEMP:  27; 6HR MAX TEMP:  30;

ELY            CLOUDY    25  21  86 NW3       29.83R
CLOQUET        CLOUDY    32  28  86 N13       29.82R WCI  22
WHEATON        PTCLDY    30  30 100 N6        29.98R WCI  24
BRAINERD       CLOUDY    36  28  73 N16       29.85R
6HR MIN TEMP:  36; 6HR MAX TEMP:  41;

HIBBING        CLOUDY    30  24  78 N10       29.83R WCI  21
6HR MIN TEMP:  27; 6HR MAX TEMP:  34; 6HR PCP: TRACE;

ALEXANDRIA     CLOUDY    33  27  78 N14       29.90R WCI  23
6HR MIN TEMP:  33; 6HR MAX TEMP:  40;

SAINT CLOUD    CLOUDY    38  29  70 NW9       29.85R
6HR MIN TEMP:  38; 6HR MAX TEMP:  43;

MINNEAPOLIS    CLOUDY    40  31  70 NW15      29.84R
6HR MIN TEMP:  40; 6HR MAX TEMP:  45;

$$

  *****  WEATHER ACROSS SOUTH DAKOTA  *****

CITY           SKY/WX    TMP DP  RH WIND       PRES   REMARKS
SIOUX FALLS    MOCLDY    40  34  79 NW13      29.95R
6HR MIN TEMP:  40; 6HR MAX TEMP:  48;

BROOKINGS      NOT AVBL
WATERTOWN      CLEAR     37  31  78 NW10      29.94R
6HR MIN TEMP:  37; 6HR MAX TEMP:  42;

HURON          CLEAR     37  33  85 NW8       29.99R
6HR MIN TEMP:  37; 6HR MAX TEMP:  51;

SISSETON         N/A     34  32  92 N9        29.95R
ABERDEEN       CLEAR     38  32  79 NW9       29.98S
6HR MIN TEMP:  37; 6HR MAX TEMP:  48;

MITCHELL       CLEAR     41  33  73 NW8       30.00R
PIERRE         PTCLDY    42  28  57 NW7       29.98S
6HR MIN TEMP:  42; 6HR MAX TEMP:  57;

MOBRIDGE       PTCLDY    43  32  65 NE3       29.96S
RAPID CITY     CLEAR     50  30  46 NE12      30.00F
6HR MIN TEMP:  50; 6HR MAX TEMP:  68;

$$

  *****  SOME WEATHER IN NEARBY STATES *****

CITY           SKY/WX    TMP DP  RH WIND       PRES   REMARKS
GLASGOW MT     PTCLDY    47  36  65 CALM      29.88F
6HR MIN TEMP:  40; 6HR MAX TEMP:  51;

GREAT FALLS MT CLEAR     59  30  33 SW13      29.94R
6HR MIN TEMP:  59; 6HR MAX TEMP:  67;

CHEYENNE WY    CLEAR     59  21  23 W8        30.22S
6HR MIN TEMP:  59; 6HR MAX TEMP:  67;

SCOTTSBLUFF NE CLEAR     52  34  50 W7        30.11R
6HR MIN TEMP:  52; 6HR MAX TEMP:  65;

OMAHA NE       PTCLDY    47  33  58 NW8       29.97R
6HR MIN TEMP:  47; 6HR MAX TEMP:  58;

DES MOINES IA  PTCLDY    48  36  63 NW15      29.90R
6HR MIN TEMP:  46; 6HR MAX TEMP:  53;

DAVENPORT IA   CLOUDY    33  29  85 CALM      29.84R
6HR MIN TEMP:  26; 6HR MAX TEMP:  33;

CHICAGO IL     FRZ DRZL  25  23  92 S6        29.89R FOG     WCI  18
6HR MIN TEMP:  25; 6HR MAX TEMP:  26; 6HR PCP: TRACE;

EAU CLAIRE WI  CLOUDY    27  24  89 CALM      29.82R
6HR MIN TEMP:  24; 6HR MAX TEMP:  27; 6HR PCP:  0.01;

LA CROSSE WI   CLOUDY    30  26  85 S5        29.84R
6HR MIN TEMP:  26; 6HR MAX TEMP:  30; 6HR PCP: TRACE;

$$

  *****  SOME NATIONAL WEATHER *****

CITY           SKY/WX    TMP DP  RH WIND       PRES   REMARKS
LA GUARDIA NY  LGT SNOW  27  23  85 NE21G28   29.84F FOG     WCI  13
6HR MIN TEMP:  23; 6HR MAX TEMP:  27; 6HR PCP:  0.20;

RALEIGH NC     CLOUDY    45  39  79 VRB3      29.66R
6HR MIN TEMP:  45; 6HR MAX TEMP:  50;

ATLANTA GA     MOCLDY    37  27  65 NW10      29.92R
6HR MIN TEMP:  37; 6HR MAX TEMP:  44;

NEW ORLEANS LA PTCLDY    56  33  42 NW5       30.09R
6HR MIN TEMP:  56; 6HR MAX TEMP:  62;

OKLAHOMA CITY  PTCLDY    63  33  32 NW7       30.04S
6HR MIN TEMP:  62; 6HR MAX TEMP:  77;

ALBUQUERQUE NM PTCLDY    56  26  31 CALM      30.32S
6HR MIN TEMP:  42; 6HR MAX TEMP:  58;

SALT LAKE CITY PTCLDY    45  35  68 W8        30.20F
6HR MIN TEMP:  45; 6HR MAX TEMP:  51;

LOS ANGELES CA LGT RAIN  66  44  45 S15       30.03R
6HR MIN TEMP:  66; 6HR MAX TEMP:  76; 6HR PCP: TRACE;




USA.gov is the U.S. government's official web portal to all federal, state and local government web resources and services.